Total_Precipitation_Accumulation
1.17 1.20 1.31 1.47 1.56 1.62 1.78 1.77 1.71 1.69 1.72 1.68 1.63 1.66 1.65 1.56 1.63 1.81 1.92 2.10 2.23 2.30 2.27 2.31 2.30 2.42 2.47 2.37 2.46 2.60 2.83 3.02 2.70 2.19 2.25 2.39 2.33 2.11 1.93 1.76 1.64 1.61 1.59
1.16 1.24 1.30 1.40 1.48 1.53 1.59 1.67 1.74 1.72 1.78 1.75 1.71 1.68 1.56 1.55 1.63 1.73 1.86 2.03 2.17 2.28 2.39 2.47 2.27 2.35 2.49 2.43 2.43 2.47 2.59 2.87 2.77 2.62 2.56 2.62 2.53 2.27 2.05 1.79 1.50 1.36 1.42
1.28 1.28 1.24 1.31 1.29 1.35 1.44 1.51 1.64 1.69 1.73 1.78 1.80 1.73 1.68 1.71 1.78 1.83 1.88 2.02 2.14 2.21 2.31 2.31 2.26 2.40 2.31 2.36 2.44 2.42 2.42 2.48 2.61 2.59 2.47 2.52 2.45 2.24 2.06 1.81 1.57 1.53 1.39
1.18 1.21 1.24 1.24 1.28 1.38 1.46 1.51 1.56 1.52 1.59 1.63 1.63 1.71 1.75 1.79 1.82 1.82 1.81 1.84 1.91 1.98 1.98 1.88 1.82 1.89 1.97 2.16 2.16 2.18 2.26 2.32 2.41 2.36 2.33 2.40 2.40 2.43 2.27 1.98 1.83 1.66 1.48
1.18 1.15 1.21 1.29 1.31 1.36 1.38 1.40 1.42 1.47 1.50 1.66 1.68 1.77 1.83 1.79 1.70 1.74 1.72 1.65 1.82 1.77 1.64 1.59 1.60 1.69 1.73 1.82 1.75 1.85 2.03 2.11 2.16 2.24 2.31 2.47 2.48 2.60 2.47 2.19 2.05 1.90 1.63
1.17 1.26 1.34 1.34 1.27 1.34 1.39 1.39 1.38 1.48 1.57 1.66 1.71 1.83 1.86 1.70 1.74 1.75 1.75 1.73 1.79 1.74 1.69 1.61 1.48 1.48 1.47 1.51 1.52 1.58 1.73 1.87 2.05 2.22 2.28 2.38 2.44 2.40 2.36 2.24 2.13 1.96 1.68
1.19 1.22 1.40 1.50 1.42 1.50 1.55 1.54 1.50 1.52 1.65 1.73 1.86 1.91 1.86 1.90 1.79 1.62 1.64 1.63 1.69 1.72 1.75 1.73 1.45 1.28 1.40 1.36 1.49 1.46 1.43 1.48 1.59 1.77 1.90 2.04 2.24 2.33 2.41 2.33 2.33 2.20 1.90
1.22 1.32 1.58 1.74 1.65 1.66 1.67 1.70 1.73 1.78 1.81 1.92 1.95 1.85 1.79 1.81 1.74 1.45 1.36 1.28 1.40 1.51 1.60 1.66 1.65 1.56 1.53 1.53 1.59 1.59 1.51 1.48 1.56 1.56 1.61 1.83 2.17 2.45 2.50 2.45 2.48 2.35 2.05
1.36 1.50 1.74 1.97 2.11 2.06 1.92 1.99 2.06 2.04 2.03 2.09 2.11 2.05 1.93 1.90 1.73 1.39 1.25 1.18 1.32 1.40 1.46 1.47 1.47 1.39 1.43 1.34 1.36 1.44 1.45 1.39 1.37 1.38 1.40 1.54 1.81 2.17 2.37 2.41 2.49 2.39 2.16
1.55 1.59 1.74 1.97 2.09 2.05 2.03 2.20 2.32 2.27 2.21 2.23 2.12 1.99 1.89 1.88 1.82 1.50 1.31 1.22 1.35 1.42 1.52 1.50 1.48 1.41 1.39 1.25 1.20 1.27 1.26 1.27 1.33 1.33 1.30 1.29 1.39 1.69 2.01 2.01 2.09 2.22 2.02
1.56 1.60 1.74 1.98 2.25 2.20 2.21 2.29 2.38 2.38 2.38 2.39 2.29 2.18 2.03 1.97 1.95 1.63 1.44 1.33 1.41 1.46 1.41 1.41 1.40 1.39 1.19 1.10 1.08 1.11 1.16 1.15 1.27 1.32 1.33 1.34 1.40 1.49 1.63 1.71 1.79 1.87 1.86
1.63 1.63 1.72 1.98 2.09 2.14 2.28 2.33 2.43 2.52 2.49 2.44 2.43 2.28 2.23 2.15 1.89 1.63 1.45 1.40 1.46 1.53 1.51 1.47 1.43 1.30 1.07 0.97 0.86 0.83 0.87 0.85 0.90 1.04 1.11 1.14 1.20 1.27 1.38 1.53 1.71 1.78 1.78
1.56 1.53 1.62 1.78 1.88 2.03 2.12 2.07 2.12 2.25 2.24 2.26 2.27 2.21 2.25 2.35 2.19 1.75 1.44 1.34 1.39 1.47 1.60 1.65 1.45 1.28 1.12 0.98 0.92 0.85 0.78 0.73 0.82 0.91 0.96 0.97 1.02 1.11 1.29 1.51 1.72 1.91 1.86
1.50 1.45 1.55 1.76 1.88 1.95 2.02 2.00 2.05 2.10 2.16 2.23 2.25 2.18 2.19 2.32 2.30 1.97 1.64 1.44 1.33 1.29 1.31 1.31 1.22 1.15 1.04 0.93 0.85 0.77 0.69 0.73 0.80 0.82 0.89 0.97 1.08 1.25 1.34 1.37 1.47 1.69 1.86
1.60 1.55 1.63 1.74 1.83 1.98 2.04 2.07 2.07 2.07 2.05 2.05 2.04 1.98 1.98 2.09 2.11 1.90 1.65 1.49 1.36 1.30 1.27 1.28 1.25 1.25 1.14 1.05 0.98 0.93 0.93 0.95 0.91 0.91 0.98 1.06 1.12 1.20 1.30 1.37 1.45 1.51 1.55
1.72 1.68 1.64 1.61 1.69 1.76 1.81 1.77 1.72 1.67 1.65 1.58 1.56 1.47 1.45 1.61 1.61 1.36 1.22 1.24 1.23 1.17 1.14 1.18 1.25 1.29 1.24 1.17 1.13 1.08 1.09 1.08 1.04 1.06 1.09 1.14 1.19 1.21 1.28 1.42 1.54 1.56 1.46
1.74 1.62 1.53 1.47 1.47 1.49 1.58 1.66 1.71 1.61 1.51 1.38 1.30 1.20 1.12 1.32 1.38 1.22 1.09 1.03 0.98 0.96 0.98 1.05 1.10 1.18 1.23 1.14 1.06 1.01 1.01 1.03 1.09 1.12 1.13 1.16 1.23 1.28 1.33 1.42 1.55 1.62 1.54
1.69 1.58 1.42 1.34 1.35 1.35 1.44 1.53 1.58 1.59 1.54 1.34 1.18 1.09 0.99 1.09 1.19 1.14 1.03 0.91 0.88 0.87 0.90 0.99 1.06 1.12 1.19 1.15 1.07 1.07 1.10 1.15 1.14 1.14 1.16 1.19 1.26 1.32 1.37 1.42 1.48 1.55 1.56
1.65 1.54 1.42 1.38 1.38 1.30 1.23 1.26 1.31 1.36 1.43 1.38 1.20 1.12 1.05 1.08 1.15 1.09 0.96 0.83 0.86 0.86 0.88 0.95 1.02 1.09 1.12 1.10 1.10 1.12 1.14 1.17 1.13 1.15 1.22 1.28 1.28 1.36 1.36 1.41 1.50 1.61 1.62
1.40 1.36 1.32 1.32 1.32 1.26 1.21 1.23 1.29 1.36 1.42 1.39 1.26 1.16 1.06 1.04 1.07 1.06 0.96 0.89 0.87 0.84 0.84 0.91 1.00 1.05 1.09 1.12 1.20 1.26 1.23 1.26 1.28 1.23 1.26 1.34 1.31 1.32 1.33 1.35 1.45 1.51 1.52
1.22 1.16 1.11 1.10 1.12 1.12 1.12 1.20 1.33 1.40 1.43 1.33 1.15 1.01 0.93 0.85 0.92 0.93 0.96 1.00 0.98 0.97 0.98 0.97 1.03 1.09 1.12 1.20 1.27 1.32 1.33 1.34 1.36 1.31 1.30 1.37 1.38 1.40 1.41 1.37 1.38 1.49 1.49
1.29 1.13 1.00 0.96 1.00 1.03 1.10 1.21 1.28 1.27 1.20 1.14 1.04 0.96 0.92 0.85 0.87 0.90 0.95 0.96 0.96 0.96 0.93 0.94 0.96 1.03 1.07 1.11 1.17 1.23 1.25 1.25 1.28 1.34 1.34 1.36 1.37 1.35 1.37 1.36 1.34 1.44 1.54
1.13 0.94 0.78 0.74 0.78 0.89 1.04 1.21 1.25 1.17 1.06 1.01 1.00 0.96 0.96 0.97 0.95 0.95 0.97 0.95 0.93 0.91 0.88 0.90 0.92 0.97 1.03 1.03 1.02 1.07 1.11 1.12 1.11 1.18 1.29 1.30 1.33 1.36 1.37 1.39 1.39 1.43 1.52
1.05 0.87 0.72 0.67 0.70 0.81 0.98 1.17 1.18 1.07 1.02 1.04 1.03 1.03 1.01 1.00 0.98 0.99 1.01 1.02 0.99 0.95 0.92 0.95 0.95 0.90 0.92 0.96 0.93 0.89 0.90 0.90 0.90 0.99 1.12 1.23 1.27 1.36 1.36 1.37 1.41 1.40 1.48
0.93 0.85 0.74 0.72 0.77 0.91 1.09 1.18 1.11 1.02 0.98 0.97 0.97 1.04 1.10 1.09 1.06 1.03 1.02 1.06 1.07 1.08 1.02 0.97 0.94 0.88 0.82 0.82 0.83 0.80 0.80 0.73 0.71 0.78 0.89 1.03 1.09 1.20 1.26 1.29 1.37 1.41 1.43
0.87 0.84 0.79 0.78 0.86 1.01 1.10 1.10 0.99 0.94 0.99 0.96 0.94 0.98 1.05 1.10 1.12 1.15 1.14 1.09 1.04 0.99 0.92 0.87 0.84 0.83 0.79 0.74 0.70 0.66 0.62 0.58 0.60 0.68 0.76 0.86 0.97 1.07 1.17 1.23 1.26 1.34 1.35